COSMOS 1579

Satellite information

Favourite Embed

Satellite Type and Status

PAYLOADIN ORBIT

Key statistics

Satellite COSMOS 1579 at a glance.

Uptime

14984

Days in orbit

Revolutions

≈ 13.9

Per day

Orbit

LEO

Low Earth Orbit

Inclination

65.1

Latest

Satellite identification and parameters

Extended collection of information and parameters for COSMOS 1579.

Object identification

Identified? True

Debris? False

Object name: COSMOS 1579

International designator: 1984-069A

Object number (NORAD): 15085

Object ID (CCSDS): 15085

Country: COMMONWEALTH OF INDEPENDENT STATES (CIS)

Current information (Y/N): Y

RCS size: LARGE

Orbital parameters

Period: 103.881 minutes

Inclination: 65.0504 deg

SMA: 7320.131 km

Apoapsis: 972.889 km

Periapsis: 911.103 km

RAAN: 260.2713 deg

Eccentricy: 0.0042203

Argument of periapsis: 170.209 deg

Mean anomaly: 189.9804 deg

Mean motion: 13.86195525 rev/day

Mean motion (dot): -0.00000059 rev/day2

B* drag term: 0.000025711 1/REarth

Two-line elements (TLE)

Creation date: July 6, 2025, 10:56 p.m.

Reference frame: TEME

Reference center: EARTH

Epoch: July 6, 2025, 5:15 p.m. UTC

TLE line 0: 0 COSMOS 1579

TLE line 1: 1 15085U 84069A 25187.71914233 -.00000059 00000-0 25711-4 0 9994

TLE line 2: 2 15085 65.0504 260.2713 0042203 170.2090 189.9804 13.86195525 78146

Live tracking on map

Real-time ground track for satellite COSMOS 1579.

In-orbit conjunctions

A list of the most updated potential collisions computed for object COSMOS 1579.

Target Orbit TCA Probability of collision Miss distance Type
NOAA 16 DEB SSO 2024-10-08 15:30:43 0.0001552777 299.0 (m) DEBRIS

Associated space launch

Active radar satellite for ocean surveillance powered by a nuclear reactor.

COSMOS 1579 was lifted into orbit during the mission ‘Tsiklon-2 | US-A 24’, on board a Tsiklon-2 space rocket.

The launch took place on June 29, 1984, 12:21 a.m. from 90.

For more information about the launch, click the button.

Launch to space Tsiklon-2 | US-A 24
Tsiklon-2 | US-A 24

Agency: N/A

Status: Launch Successful

Launch date: June 29, 1984, 12:21 a.m. UTC

Rocket: Tsiklon-2

Launch pad: 90

Location: Baikonur Cosmodrome, Republic of Kazakhstan

...

Latest news about this satellite

There are no fresh news available about this satellite. Check back as we update our databases every day.


Newsletter sign-up

Weekly statistics, charts and insights to help you stay on top of the space industry.